KGRFKUIL

Guest
Details From KGRF - GRAY AAF
To KUIL - QUILLAYUTE
Flight Number -
Tags generated
Created
Modified
Stats Distance 96 nm / 177 km
Max Altitude 2,800 ft / 853 m
Waypoints 3
Social Downloads 0
Likes 0
Share VATSIM

Download

Looking for another format? Having issues loading an existing format? Contact us
Advertisement - Login to hide

Notes

Basic altitude profile: - Ascent Rate: 2500ft/min - Ascent Speed: 250kts - Cruise Altitude: 35000ft - Cruise Speed: 420kts - Descent Rate: 1500ft/min - Descent Speed: 250kts Options: - Use NATs: yes - Use PACOTS: yes - Use low airways: yes - Use high airways: yes

Route

KGRF AFGAP KUIL

ID Type Via Altitude Latitude Longitude Leg Dist Tot Dist Heading (true) Name
O KGRF APT - 0 ft / 0 m 47.07922˚ -122.58078˚ - 0 nm - GRAY AAF
AFGAP FIX - 2,800 ft / 853 m 47.16279˚ -122.73333˚ 8 nm 8 nm 309° / 309° -
O KUIL APT - 0 ft / 0 m 47.93913˚ -124.56118˚ 87 nm 95 nm 303° / 302° QUILLAYUTE

Altitude Profile

Advertisement - Login to hide

KGRF

Details ICAO KGRF (GRF)
Name GRAY AAF
Region United States
Timezone America/Los_Angeles (UTC-7.0)
Stats Elevation 302 ft / 92 m (AMSL)
Location 47.079218° -122.580783°
Runways 1
Magnetic Variation 15.584° E

METAR

KGRF 212018Z 00000KT 10SM OVC031 17/12 A3006 RMK AO2A SLP183 $

Decode

TAF

TAF AMD KGRF 211515Z 2115/2219 24009KT 9999 BKN011 QNH3003INS TEMPO 2115/2118 BKN015 BECMG 2117/2118 24009KT 9999 BKN020 QNH3007INS BECMG 2119/2120 VRB06KT 9999 SCT030 QNH3005INS BECMG 2206/2207 VRB06KT 8000 BR SCT020 QNH3002INS BECMG 2216/2217 22009KT 9999 NSW SCT030 QNH3006INS TX19/2123Z TN10/2213Z

Decode

Departure Runways

ID Width Length Bearing (true) Bearing (mag) Surface Threshold Offset Overrun Length
15 150 ft / 46 m 6,126 ft / 1,867 m 167.11° 151.53° Asphalt 0 ft / 0 m 0 ft / 0 m
33 150 ft / 46 m 6,126 ft / 1,867 m 347.11° 331.53° Asphalt 0 ft / 0 m 0 ft / 0 m

KUIL

Details ICAO KUIL
Name QUILLAYUTE
Region United States
Timezone America/Los_Angeles (UTC-7.0)
Stats Elevation 194 ft / 59 m (AMSL)
Location 47.939128° -124.561178°
Runways 2
Magnetic Variation 16.103° E

METAR

KUIL 211953Z AUTO 29009G16KT 10SM CLR 16/09 A3009 RMK AO2 SLP189 T01560089 $

Decode

TAF

Not found

Destination Runways

ID Width Length Bearing (true) Bearing (mag) Surface Threshold Offset Overrun Length
04 98 ft / 30 m 4,203 ft / 1,281 m 58.29° 42.19° Concrete 0 ft / 0 m 0 ft / 0 m
14 174 ft / 53 m 4,676 ft / 1,425 m 143.00° 126.90° Concrete 0 ft / 0 m 0 ft / 0 m
22 98 ft / 30 m 4,203 ft / 1,281 m 238.31° 222.21° Concrete 0 ft / 0 m 801 ft / 244 m
32 174 ft / 53 m 4,676 ft / 1,425 m 323.00° 306.90° Concrete 0 ft / 0 m 0 ft / 0 m